[[{"header":{"parameterUnit":"m.s-1","parameterCategory":1,"la1":30.2991,"la2":30.254,"lo1":-89.0895,"lo2":-89.0444,"dy":0.0017,"dx":0.0017,"nx":28,"ny":28,"refTime":"2023-08-10T09:00:00:Z","depth":0,"parameterNumber":2,"parameterNumberName":"U-component_of_WINDS"},"data":[0,0,0,0,0,0,0,0,0,0,0,0,0,0,0,0,0,0,0,0,0,0,0,0,0,0,0,0,0,0,0,0,0,0,0,0,0,0,0,0,0,0,0,0,0,0,0,0,0,0,0,0,0,0,0,0,0,0,5.4414,5.4416,0,5.4553,5.4554,5.4556,5.4499,5.4495,5.4492,5.4489,5.4629,5.4636,5.4642,0,0,0,0,0,0,0,0,0,0,0,0,0,5.4095,5.4101,5.4414,5.4416,5.4418,5.4552,5.4554,5.4556,5.4499,5.4495,5.4491,5.4487,5.4627,5.4635,5.4643,0,0,0,0,0,0,0,0,0,0,0,0,0,5.4233,5.4103,5.4414,5.4405,5.4406,5.4552,5.4554,5.4557,5.45,5.4495,5.449,5.4486,5.4624,5.4634,5.4644,5.4806,0,0,5.4675,5.468,0,0,0,0,0,0,0,0,5.4226,5.4245,5.4405,5.4406,5.4407,5.4503,5.4493,5.464,5.4501,5.4464,5.4489,5.4483,5.4591,5.4604,5.4641,5.4813,5.4819,5.4676,5.4682,5.4687,5.469,0,0,0,0,0,0,0,5.4216,5.4239,5.4469,5.4407,5.4409,5.4393,5.4407,5.4521,5.4554,5.4467,5.4463,5.4481,5.4591,5.4631,5.4643,5.4821,5.4676,5.4685,5.4691,5.4695,5.5126,5.5131,0,0,0,0,0,0,5.4207,5.4231,5.4464,5.4473,5.4302,5.4403,5.4419,5.4477,5.4552,5.4559,5.4485,5.4477,5.4616,5.4632,5.4648,5.4838,5.4687,5.4696,5.4702,5.5121,5.5127,5.5133,0,0,0,0,0,0,5.42,5.4228,5.4459,5.4351,5.4379,5.4414,5.448,5.4483,5.4523,5.4566,5.4571,5.452,5.4613,5.4634,5.4766,5.4842,5.4701,5.471,5.5115,5.5123,5.513,5.5221,0,0,0,0,0,0,5.4191,5.4226,5.429,5.4353,5.4385,5.4576,5.4485,5.4489,5.4541,5.4533,5.46,5.4606,5.461,5.4751,5.4776,5.4853,5.4718,5.5108,5.5118,5.5128,5.5212,5.5232,5.5249,0,0,0,0,0,5.418,5.4311,5.4293,5.4321,5.4465,5.4581,5.4599,5.4601,5.4547,5.461,5.4636,5.4604,5.483,5.4765,5.4793,5.4874,5.5103,5.5115,5.5127,5.5203,5.5228,5.5248,0,0,0,0,0,0,5.4255,5.4319,5.43,5.4455,5.4513,5.4571,5.465,5.4628,5.4702,5.4691,5.469,5.4706,5.4841,5.4872,5.4798,5.5032,5.4958,5.4976,5.5007,5.503,5.5048,5.5036,5.4727,0,0,0,0,0,5.429,5.438,5.443,5.4562,5.4592,5.4616,5.4667,5.4663,5.4723,5.4746,5.4783,5.4841,5.4924,5.498,5.506,5.5217,5.5228,5.5286,5.5305,5.532,5.5334,5.5414,5.5439,5.5172,5.5172,5.5172,0,0,5.4363,5.4408,5.4465,5.4578,5.4622,5.4712,5.4637,5.4737,5.4803,5.4762,5.4887,5.4916,5.4981,5.5124,5.519,5.5154,5.541,5.5335,5.5346,5.5353,5.5429,5.5454,5.5476,5.5181,5.5179,5.5178,0,0,5.454,5.4586,5.4698,5.4743,5.4811,5.4825,5.4852,5.4913,5.493,5.5057,5.5026,5.5104,5.525,5.5295,5.5337,5.5527,5.5498,5.5554,5.5648,5.5726,5.5747,5.5765,5.5828,5.5851,5.5569,5.5569,5.5569,0,5.4621,5.4757,5.4758,5.4859,5.4908,5.4874,5.4985,5.503,5.512,5.5153,5.5112,5.529,5.5332,5.5483,5.5529,5.5566,5.5593,5.5544,5.5744,5.5763,5.578,5.584,5.5864,5.5575,5.5574,5.5573,5.5573,0,5.485,5.4945,5.5027,5.5113,5.5172,5.5278,5.5293,5.5352,5.5343,5.5361,5.5487,5.5535,5.5622,5.5658,5.5652,5.5807,5.5782,5.5744,5.5668,5.5811,5.5867,5.589,5.5583,5.5581,5.5579,5.5578,0,0,5.5079,5.5162,5.5192,5.5228,5.5299,5.5371,5.5474,5.5558,5.5606,5.5669,5.5752,5.5875,5.5837,5.5885,5.5883,5.5952,5.6093,5.5903,5.5905,5.5932,5.6261,5.6287,5.6314,5.6075,5.608,5.6084,5.6254,0,5.5257,5.5437,5.544,5.5605,5.5689,5.5657,5.5746,5.5797,5.5817,5.589,5.5911,5.5995,5.5943,5.597,5.6037,5.6061,5.6158,5.605,5.6149,5.6153,5.6129,5.6344,5.6372,5.6531,5.6277,5.628,5.6283,0,5.5489,5.5558,5.5731,5.5784,5.582,5.59,5.5974,5.6046,5.6102,5.6111,5.6163,5.6149,5.6251,5.6175,5.6312,5.6239,5.628,5.6297,5.6303,5.6309,5.6223,5.6351,5.6582,5.6604,5.6319,5.6316,5.6313,0,5.5631,5.5767,5.5887,5.592,5.5987,5.6043,5.6074,5.6125,5.6174,5.624,5.627,5.6347,5.6388,5.6447,5.6452,5.6398,5.6589,5.6515,5.6596,5.6595,5.6634,5.6631,5.6871,5.6669,5.6669,5.6668,5.6668,0,5.5828,5.5933,5.5951,5.6024,5.614,5.6141,5.6255,5.6281,5.6327,5.6402,5.6381,5.6451,5.6457,5.653,5.6535,5.6645,5.6665,5.6672,5.6672,5.6672,5.667,5.6695,5.6683,5.6674,5.6673,5.6672,5.6671,0,5.6005,5.6022,5.6149,5.6201,5.6217,5.63,5.6343,5.6411,5.6428,5.6523,5.6546,5.6571,5.6655,5.6667,5.6766,5.6769,5.6899,5.689,5.688,5.6877,5.6955,5.6945,5.7215,5.7249,5.703,5.7032,5.7034,0,5.6127,5.6207,5.6267,5.6316,5.6349,5.6429,5.6478,5.6482,5.6533,5.6601,5.666,5.6741,5.6806,5.694,5.6966,5.704,5.7029,5.7119,5.704,5.7036,5.7024,5.7017,5.7023,5.7132,5.7135,5.7137,5.7138,0,5.634,5.6343,5.6415,5.6489,5.6547,5.6606,5.6661,5.6702,5.6712,5.6771,5.6855,5.6905,5.7004,5.7083,5.7156,5.7185,5.7162,5.7163,5.7185,5.7183,5.7172,5.7174,5.6916,5.7156,5.7155,5.7153,5.7152,5.7152,5.649,5.6557,5.6609,5.6688,5.673,5.6781,5.6845,5.6869,5.694,5.702,5.7019,5.711,5.716,5.7255,5.7289,5.7359,5.733,5.7363,5.737,5.7377,5.7381,5.7165,5.7373,5.7373,5.7372,5.7372,5.7372,0,5.6696,5.6728,5.6801,5.6877,5.6938,5.6913,5.6971,5.7024,5.7105,5.7154,5.7217,5.7312,5.7388,5.7419,5.7493,5.7542,5.7533,5.7561,5.7555,5.7561,5.7407,5.7378,5.7567,5.7567,5.7567,5.7567,5.7567,5.7567,5.6811,5.6922,5.6931,5.7061,5.7091,5.718,5.7215,5.7261,5.7299,5.7406,5.7468,5.7489,5.7529,5.7605,5.7672,5.7679,5.7705,5.7737,5.7739,5.7593,5.7573,5.7554,5.7527,5.7744,5.7744,5.7887,5.7888,5.7889]},{"header":{"parameterUnit":"m.s-1","parameterCategory":1,"la1":30.2991,"la2":30.254,"lo1":-89.0895,"lo2":-89.0444,"dy":0.0017,"dx":0.0017,"nx":28,"ny":28,"refTime":"2023-08-10T09:00:00:Z","depth":0,"parameterNumber":3,"parameterNumberName":"V-component_of_WINDS"},"data":[0,0,0,0,0,0,0,0,0,0,0,0,0,0,0,0,0,0,0,0,0,0,0,0,0,0,0,0,0,0,0,0,0,0,0,0,0,0,0,0,0,0,0,0,0,0,0,0,0,0,0,0,0,0,0,0,0,0,3.4276,3.4276,0,3.4334,3.4335,3.4336,3.4282,3.428,3.4278,3.4276,3.4333,3.4337,3.434,0,0,0,0,0,0,0,0,0,0,0,0,0,3.4112,3.4116,3.4276,3.4276,3.4277,3.4334,3.4335,3.4336,3.4282,3.428,3.4277,3.4275,3.4332,3.4336,3.4341,0,0,0,0,0,0,0,0,0,0,0,0,0,3.4178,3.4117,3.4275,3.4257,3.4256,3.4334,3.4335,3.4336,3.4283,3.428,3.4276,3.4273,3.4331,3.4336,3.4341,3.444,0,0,3.4358,3.436,0,0,0,0,0,0,0,0,3.4175,3.4184,3.4259,3.4259,3.4258,3.4298,3.4299,3.4371,3.4284,3.4273,3.4275,3.4272,3.4324,3.433,3.4348,3.4442,3.4445,3.4358,3.4361,3.4364,3.4365,0,0,0,0,0,0,0,3.417,3.4182,3.4299,3.426,3.4259,3.4245,3.425,3.4312,3.4316,3.4273,3.427,3.4277,3.4323,3.4343,3.4349,3.4446,3.4358,3.4363,3.4366,3.4368,3.462,3.4624,0,0,0,0,0,0,3.4168,3.4178,3.4297,3.4301,3.4207,3.425,3.4257,3.4288,3.4315,3.4316,3.428,3.4275,3.4335,3.4343,3.4351,3.4465,3.4364,3.4369,3.4372,3.4617,3.4621,3.4625,0,0,0,0,0,0,3.4165,3.4179,3.4294,3.4238,3.4252,3.4257,3.4292,3.4291,3.4311,3.432,3.432,3.43,3.4333,3.4343,3.4417,3.4467,3.4371,3.4376,3.4613,3.4618,3.4623,3.4697,0,0,0,0,0,0,3.416,3.4178,3.4217,3.424,3.4255,3.4362,3.4295,3.4294,3.432,3.4314,3.4339,3.434,3.4331,3.441,3.4423,3.4472,3.438,3.4608,3.4615,3.4621,3.469,3.4704,3.4716,0,0,0,0,0,3.4155,3.4236,3.4219,3.4234,3.4304,3.4365,3.4374,3.4363,3.4325,3.4363,3.4368,3.4339,3.4459,3.4418,3.4432,3.4484,3.4605,3.4613,3.4621,3.4685,3.4702,3.4716,0,0,0,0,0,0,3.4218,3.4238,3.422,3.4311,3.4337,3.4356,3.4403,3.4381,3.4418,3.441,3.4394,3.44,3.4478,3.4488,3.4442,3.4579,3.4526,3.4537,3.4569,3.4586,3.4599,3.4594,3.4385,0,0,0,0,0,3.4243,3.4292,3.4307,3.4385,3.4399,3.4399,3.4425,3.4415,3.444,3.445,3.4461,3.4486,3.4529,3.4558,3.4599,3.4692,3.4695,3.4734,3.4747,3.4758,3.4767,3.4815,3.4832,3.4651,3.4651,3.465,0,0,3.4295,3.4311,3.4344,3.4398,3.4417,3.4467,3.4409,3.4464,3.45,3.4459,3.4529,3.4538,3.4564,3.4648,3.4685,3.4659,3.4818,3.4768,3.4776,3.478,3.4825,3.4842,3.4857,3.4656,3.4655,3.4654,0,0,3.4413,3.4432,3.4499,3.4518,3.4547,3.4546,3.4562,3.4584,3.4588,3.4659,3.4627,3.4669,3.4745,3.4764,3.4784,3.4907,3.4881,3.4921,3.4989,3.5035,3.5049,3.5062,3.5104,3.512,3.493,3.4931,3.4931,0,3.4473,3.4548,3.4535,3.4593,3.4617,3.4581,3.4647,3.4666,3.4707,3.4723,3.4693,3.4785,3.4801,3.4887,3.4917,3.4935,3.4951,3.4918,3.5049,3.5061,3.5072,3.5112,3.5129,3.4935,3.4935,3.4934,3.4934,0,3.462,3.4672,3.4722,3.4761,3.4791,3.4853,3.4847,3.4879,3.4865,3.4866,3.4937,3.4954,3.4996,3.5016,3.5003,3.51,3.5083,3.5051,3.4997,3.5094,3.5132,3.5147,3.4942,3.494,3.4939,3.4938,0,0,3.4781,3.4812,3.483,3.4847,3.4875,3.4914,3.4973,3.5014,3.504,3.5069,3.5116,3.5179,3.515,3.5172,3.5161,3.5202,3.5296,3.5165,3.5165,3.5187,3.5401,3.5424,3.5442,3.5279,3.5282,3.5284,3.5398,0,3.49,3.5003,3.4992,3.5089,3.5136,3.5102,3.5152,3.5174,3.5177,3.5215,3.5218,3.5262,3.5221,3.5233,3.5272,3.5276,3.5338,3.5268,3.5321,3.5323,3.5315,3.5462,3.5487,3.5594,3.5413,3.5416,3.5417,0,3.5053,3.5086,3.5188,3.5207,3.5226,3.5272,3.5308,3.5346,3.5368,3.5367,3.5391,3.5372,3.5429,3.5374,3.5451,3.5403,3.5424,3.5429,3.5433,3.5437,3.5376,3.5469,3.5629,3.5644,3.5441,3.5439,3.5437,0,3.5158,3.5229,3.5298,3.5314,3.5338,3.537,3.5382,3.5401,3.5426,3.5457,3.5472,3.551,3.553,3.5558,3.5548,3.551,3.5626,3.5571,3.5625,3.5626,3.5651,3.565,3.5816,3.5667,3.5666,3.5666,3.5666,0,3.5291,3.5355,3.5346,3.5389,3.5458,3.5443,3.5512,3.5519,3.5536,3.5578,3.5551,3.559,3.5576,3.5614,3.5607,3.5671,3.568,3.5679,3.5677,3.5682,3.5682,3.5695,3.5686,3.567,3.5669,3.5669,3.5668,0,3.5421,3.5418,3.5491,3.5507,3.5513,3.5563,3.5576,3.5615,3.5615,3.5668,3.568,3.5679,3.5723,3.5716,3.5765,3.576,3.5838,3.5827,3.5831,3.5828,3.5882,3.5876,3.6061,3.6084,3.5921,3.5923,3.5924,0,3.5506,3.5553,3.5574,3.5601,3.5614,3.5658,3.5682,3.5669,3.5696,3.5725,3.576,3.5801,3.5833,3.5904,3.5907,3.5943,3.5932,3.5994,3.5937,3.594,3.5931,3.5928,3.5931,3.6005,3.6007,3.6008,3.601,0,3.5656,3.5651,3.5689,3.5725,3.5756,3.5784,3.5809,3.5832,3.5821,3.5852,3.5896,3.5921,3.597,3.6011,3.6044,3.6054,3.603,3.6027,3.6042,3.6047,3.6046,3.6046,3.586,3.6023,3.6022,3.6021,3.602,3.602,3.5764,3.5804,3.5825,3.5867,3.5884,3.5908,3.5945,3.5949,3.5986,3.6025,3.6015,3.6064,3.6083,3.6126,3.6139,3.6177,3.6154,3.6175,3.618,3.6185,3.6191,3.6041,3.6183,3.6183,3.6182,3.6182,3.6182,0,3.5911,3.5923,3.5961,3.5997,3.603,3.6004,3.603,3.6058,3.6103,3.6123,3.6155,3.6205,3.6243,3.6249,3.6285,3.6314,3.6303,3.6324,3.6321,3.6323,3.621,3.6194,3.6331,3.6331,3.6331,3.6331,3.6331,3.6331,3.5992,3.6058,3.6055,3.6128,3.6139,3.6188,3.6204,3.6225,3.6241,3.6298,3.633,3.6333,3.6347,3.6383,3.6417,3.6417,3.6431,3.6456,3.6452,3.6346,3.6331,3.6317,3.6301,3.6459,3.6459,3.6561,3.6562,3.6563]}]]